[[{"header":{"parameterUnit":"m.s-1","parameterCategory":1,"la1":30.2991,"la2":30.254,"lo1":-89.0895,"lo2":-89.0444,"dy":0.0017,"dx":0.0017,"nx":28,"ny":28,"refTime":"2023-03-17T21:00:00:Z","depth":0,"parameterNumber":2,"parameterNumberName":"U-component_of_WINDS"},"data":[0,0,0,0,0,0,0,0,0,0,0,0,0,0,0,0,0,0,0,0,0,0,0,0,0,0,0,0,0,0,0,0,0,0,0,0,0,0,0,0,0,0,0,0,0,0,0,0,0,0,0,0,0,0,0,0,0,0,0.6973,0.6972,0,0.6935,0.6934,0.6934,0.6951,0.6952,0.6953,0.6954,0.6912,0.691,0.6908,0,0,0,0,0,0,0,0,0,0,0,0,0,0.7059,0.7057,0.6973,0.6972,0.6972,0.6935,0.6934,0.6934,0.6951,0.6952,0.6953,0.6954,0.6912,0.691,0.6908,0,0,0,0,0,0,0,0,0,0,0,0,0,0.7021,0.7056,0.6973,0.6976,0.6976,0.6935,0.6934,0.6934,0.6951,0.6952,0.6954,0.6955,0.6913,0.691,0.6907,0.686,0,0,0.6898,0.6897,0,0,0,0,0,0,0,0,0.7023,0.7018,0.6976,0.6976,0.6976,0.6949,0.6949,0.6909,0.695,0.696,0.6954,0.6956,0.6923,0.6919,0.6909,0.6858,0.6856,0.6898,0.6896,0.6895,0.6894,0,0,0,0,0,0,0,0.7026,0.7019,0.6958,0.6976,0.6975,0.6979,0.6975,0.6941,0.6934,0.6959,0.6961,0.6956,0.6923,0.6911,0.6908,0.6855,0.6898,0.6895,0.6893,0.6892,0.6763,0.6761,0,0,0,0,0,0,0.7028,0.7021,0.6959,0.6957,0.7003,0.6976,0.6972,0.6956,0.6934,0.6932,0.6955,0.6957,0.6916,0.6911,0.6906,0.6848,0.6895,0.6892,0.689,0.6764,0.6762,0.6761,0,0,0,0,0,0,0.703,0.7023,0.696,0.6989,0.6982,0.6973,0.6955,0.6955,0.6943,0.6931,0.6929,0.6945,0.6917,0.6911,0.6871,0.6847,0.689,0.6888,0.6766,0.6764,0.6762,0.6731,0,0,0,0,0,0,0.7033,0.7023,0.7005,0.6989,0.698,0.6926,0.6954,0.6953,0.6938,0.6941,0.6921,0.6919,0.6918,0.6876,0.6868,0.6843,0.6885,0.6768,0.6765,0.6762,0.6734,0.6728,0.6723,0,0,0,0,0,0.7036,0.6998,0.7004,0.6997,0.6958,0.6925,0.692,0.692,0.6936,0.6918,0.691,0.6919,0.6852,0.6871,0.6863,0.6837,0.677,0.6766,0.6763,0.6737,0.673,0.6723,0,0,0,0,0,0,0.701,0.6996,0.7003,0.6959,0.6943,0.6928,0.6904,0.6912,0.689,0.6893,0.6894,0.6889,0.6848,0.6839,0.6862,0.679,0.6813,0.6808,0.6796,0.6789,0.6784,0.6785,0.6883,0,0,0,0,0,0.7,0.6976,0.6964,0.6926,0.6918,0.6913,0.6899,0.69,0.6884,0.6877,0.6866,0.6849,0.6823,0.6806,0.6782,0.6735,0.673,0.6713,0.6707,0.6702,0.6696,0.6669,0.6661,0.6749,0.6749,0.6749,0,0,0.6978,0.6967,0.6951,0.6921,0.6909,0.6882,0.6907,0.6878,0.6858,0.6872,0.6833,0.6826,0.6806,0.6762,0.6742,0.6753,0.6672,0.6698,0.6694,0.6691,0.6665,0.6656,0.6649,0.6746,0.6747,0.6747,0,0,0.6923,0.6913,0.688,0.6868,0.685,0.6847,0.6839,0.6823,0.6818,0.6781,0.6791,0.6767,0.6724,0.6709,0.6696,0.6638,0.6645,0.663,0.6598,0.6572,0.6565,0.6559,0.6536,0.6528,0.6625,0.6625,0.6625,0,0.6897,0.6858,0.6862,0.6832,0.6818,0.6832,0.6797,0.6785,0.676,0.6749,0.6763,0.6709,0.6697,0.6649,0.6635,0.6625,0.6615,0.6631,0.6566,0.656,0.6554,0.6532,0.6524,0.6623,0.6623,0.6624,0.6624,0,0.6825,0.6799,0.6774,0.675,0.6734,0.6702,0.67,0.6683,0.6687,0.6683,0.6644,0.6631,0.6604,0.6593,0.6596,0.6546,0.6553,0.6567,0.6589,0.6544,0.6523,0.6515,0.6621,0.6621,0.6622,0.6622,0,0,0.675,0.6731,0.6721,0.671,0.6693,0.6671,0.664,0.6615,0.66,0.6583,0.6555,0.652,0.6532,0.6517,0.652,0.6497,0.6449,0.6513,0.6512,0.6499,0.639,0.6377,0.6368,0.6455,0.6454,0.6453,0.6391,0,0.6692,0.6638,0.6641,0.6589,0.6564,0.6578,0.655,0.6536,0.6532,0.6509,0.6504,0.6477,0.6497,0.6488,0.6467,0.6459,0.6426,0.6464,0.6428,0.6426,0.6428,0.6357,0.6344,0.6286,0.6383,0.6382,0.6381,0,0.6616,0.6597,0.6543,0.6529,0.6518,0.6494,0.6471,0.645,0.6434,0.6432,0.6417,0.6423,0.6391,0.6417,0.6372,0.6397,0.6383,0.6378,0.6376,0.6369,0.6398,0.6346,0.6267,0.6257,0.6368,0.6369,0.637,0,0.6563,0.6524,0.6487,0.6477,0.6461,0.6443,0.6435,0.6421,0.6406,0.6386,0.6376,0.6353,0.634,0.6321,0.6321,0.6341,0.6274,0.6301,0.627,0.627,0.6252,0.6253,0.6167,0.6249,0.6249,0.6249,0.625,0,0.6495,0.6461,0.6463,0.6439,0.6401,0.6406,0.6368,0.6362,0.635,0.6325,0.6336,0.6312,0.6315,0.6291,0.6291,0.6252,0.6247,0.6243,0.6243,0.624,0.624,0.6228,0.6231,0.6247,0.6248,0.6248,0.6248,0,0.6428,0.6428,0.6387,0.6376,0.6372,0.6344,0.6334,0.6312,0.631,0.6278,0.6271,0.6266,0.6239,0.6238,0.6206,0.6206,0.6158,0.6164,0.6163,0.6163,0.613,0.6132,0.6031,0.6017,0.6111,0.611,0.611,0,0.6382,0.6356,0.6343,0.6327,0.6318,0.6294,0.6278,0.6283,0.6267,0.6248,0.6227,0.6201,0.6179,0.6135,0.6128,0.6104,0.6107,0.6074,0.6103,0.6101,0.6103,0.6103,0.6099,0.6066,0.6065,0.6064,0.6064,0,0.6301,0.6303,0.6281,0.6259,0.6241,0.6224,0.6208,0.6195,0.6198,0.6179,0.6151,0.6135,0.6103,0.6076,0.6053,0.6044,0.6053,0.6055,0.6046,0.6041,0.604,0.6037,0.6143,0.6056,0.6057,0.6058,0.6058,0.6058,0.6242,0.6219,0.6205,0.6181,0.617,0.6155,0.6133,0.6129,0.6106,0.608,0.6085,0.6054,0.6039,0.6009,0.5999,0.5974,0.5985,0.5973,0.5969,0.5965,0.596,0.6048,0.597,0.597,0.597,0.5971,0.5971,0,0.6158,0.6151,0.6129,0.6107,0.6087,0.6101,0.6084,0.6066,0.6038,0.6025,0.6004,0.5972,0.5947,0.5939,0.5915,0.5896,0.5899,0.5889,0.5888,0.5886,0.5952,0.5961,0.5886,0.5886,0.5886,0.5886,0.5886,0.5886,0.6113,0.6074,0.6075,0.6031,0.6024,0.5994,0.5983,0.5969,0.5958,0.5922,0.5901,0.5897,0.5886,0.586,0.5837,0.5836,0.5825,0.5811,0.5811,0.5873,0.5881,0.5889,0.5897,0.581,0.581,0.5746,0.5746,0.5745]},{"header":{"parameterUnit":"m.s-1","parameterCategory":1,"la1":30.2991,"la2":30.254,"lo1":-89.0895,"lo2":-89.0444,"dy":0.0017,"dx":0.0017,"nx":28,"ny":28,"refTime":"2023-03-17T21:00:00:Z","depth":0,"parameterNumber":3,"parameterNumberName":"V-component_of_WINDS"},"data":[0,0,0,0,0,0,0,0,0,0,0,0,0,0,0,0,0,0,0,0,0,0,0,0,0,0,0,0,0,0,0,0,0,0,0,0,0,0,0,0,0,0,0,0,0,0,0,0,0,0,0,0,0,0,0,0,0,0,-6.624,-6.6242,0,-6.6438,-6.644,-6.6442,-6.6346,-6.6341,-6.6336,-6.6331,-6.6531,-6.6541,-6.6551,0,0,0,0,0,0,0,0,0,0,0,0,0,-6.5777,-6.5786,-6.624,-6.6242,-6.6245,-6.6437,-6.644,-6.6443,-6.6347,-6.6341,-6.6335,-6.6329,-6.6528,-6.6539,-6.6552,0,0,0,0,0,0,0,0,0,0,0,0,0,-6.5976,-6.5789,-6.6239,-6.622,-6.6221,-6.6437,-6.644,-6.6444,-6.6349,-6.6341,-6.6333,-6.6326,-6.6524,-6.6538,-6.6553,-6.6799,0,0,-6.6599,-6.6606,0,0,0,0,0,0,0,0,-6.5965,-6.5993,-6.6221,-6.6222,-6.6223,-6.636,-6.635,-6.6563,-6.635,-6.63,-6.6331,-6.6322,-6.648,-6.6498,-6.6552,-6.6808,-6.6817,-6.6601,-6.661,-6.6616,-6.662,0,0,0,0,0,0,0,-6.5951,-6.5984,-6.6318,-6.6224,-6.6225,-6.6201,-6.6221,-6.639,-6.643,-6.6304,-6.6297,-6.6322,-6.6479,-6.6538,-6.6556,-6.6819,-6.66,-6.6614,-6.6623,-6.6629,-6.7288,-6.7296,0,0,0,0,0,0,-6.5939,-6.5974,-6.6312,-6.6324,-6.6073,-6.6216,-6.6238,-6.6323,-6.6428,-6.6437,-6.6328,-6.6317,-6.6516,-6.6538,-6.6562,-6.6858,-6.6616,-6.663,-6.6639,-6.7279,-6.7289,-6.7299,0,0,0,0,0,0,-6.5929,-6.597,-6.6304,-6.6147,-6.6188,-6.6232,-6.6328,-6.6331,-6.639,-6.6447,-6.6453,-6.6381,-6.651,-6.6541,-6.6741,-6.6864,-6.6637,-6.6651,-6.7269,-6.7282,-6.7294,-6.7451,0,0,0,0,0,0,-6.5916,-6.5967,-6.6061,-6.615,-6.6197,-6.6481,-6.6336,-6.6341,-6.6416,-6.6403,-6.6498,-6.6506,-6.6507,-6.6719,-6.6756,-6.688,-6.6662,-6.7258,-6.7275,-6.729,-6.7435,-6.7467,-6.7495,0,0,0,0,0,-6.59,-6.6097,-6.6067,-6.6108,-6.6316,-6.6488,-6.6514,-6.6512,-6.6427,-6.6522,-6.6558,-6.6503,-6.6844,-6.674,-6.6781,-6.6912,-6.7251,-6.727,-6.7289,-6.7421,-6.7461,-6.7494,0,0,0,0,0,0,-6.602,-6.6108,-6.6076,-6.6307,-6.6391,-6.6471,-6.6591,-6.6554,-6.6663,-6.6646,-6.6637,-6.6659,-6.6867,-6.6908,-6.6792,-6.7155,-6.7034,-6.7062,-6.7121,-6.7159,-6.7188,-6.7174,-6.6675,0,0,0,0,0,-6.6074,-6.6207,-6.6276,-6.6473,-6.6517,-6.6548,-6.6622,-6.6613,-6.6699,-6.6734,-6.6785,-6.687,-6.6996,-6.7079,-6.7198,-6.7439,-6.7459,-6.7549,-6.7579,-6.7603,-6.7629,-6.776,-6.7801,-6.7361,-6.7361,-6.7361,0,0,-6.6186,-6.625,-6.6335,-6.6499,-6.6563,-6.6701,-6.6578,-6.6729,-6.6831,-6.6756,-6.6949,-6.699,-6.7083,-6.7306,-6.7406,-6.7347,-6.7754,-6.7628,-6.7647,-6.7659,-6.7784,-6.7826,-6.7863,-6.7374,-6.7372,-6.737,0,0,-6.6461,-6.6522,-6.6694,-6.6761,-6.686,-6.6879,-6.692,-6.7007,-6.7031,-6.7225,-6.7172,-6.7292,-6.7509,-6.7579,-6.7643,-6.7944,-6.7898,-6.7983,-6.814,-6.8269,-6.8304,-6.8334,-6.8443,-6.8482,-6.8007,-6.8007,-6.8008,0,-6.6587,-6.6794,-6.6787,-6.6943,-6.7018,-6.6957,-6.7131,-6.7196,-6.7328,-6.738,-6.7312,-6.7584,-6.7643,-6.7881,-6.7955,-6.8008,-6.8055,-6.7973,-6.8299,-6.833,-6.8359,-6.8462,-6.8503,-6.8017,-6.8016,-6.8015,-6.8014,0,-6.6945,-6.7089,-6.7216,-6.7347,-6.7435,-6.7599,-6.7617,-6.7707,-6.769,-6.7716,-6.7913,-6.7982,-6.8114,-6.8169,-6.8153,-6.8406,-6.8366,-6.8299,-6.8178,-6.8411,-6.8508,-6.8548,-6.8031,-6.8028,-6.8025,-6.8022,0,0,-6.7303,-6.7428,-6.7475,-6.7535,-6.7639,-6.775,-6.791,-6.8041,-6.8119,-6.8212,-6.8347,-6.8532,-6.8471,-6.8543,-6.8534,-6.8647,-6.8883,-6.8566,-6.8568,-6.8624,-6.9167,-6.9218,-6.9264,-6.8852,-6.886,-6.8866,-6.9159,0,-6.7587,-6.7871,-6.7869,-6.8131,-6.8265,-6.8209,-6.8349,-6.8428,-6.8456,-6.8572,-6.8602,-6.8735,-6.8643,-6.8686,-6.8795,-6.8832,-6.8992,-6.881,-6.8978,-6.8984,-6.8959,-6.9315,-6.937,-6.9644,-6.9197,-6.9204,-6.9208,0,-6.7956,-6.8063,-6.8339,-6.8425,-6.848,-6.8607,-6.8727,-6.8839,-6.8927,-6.8939,-6.9021,-6.8994,-6.9157,-6.903,-6.9254,-6.9131,-6.9199,-6.9227,-6.9237,-6.9254,-6.9112,-6.9344,-6.9731,-6.9773,-6.9268,-6.9263,-6.9259,0,-6.8192,-6.8404,-6.8597,-6.8649,-6.8753,-6.8844,-6.8891,-6.8971,-6.905,-6.9154,-6.9205,-6.9327,-6.9394,-6.9488,-6.9495,-6.9401,-6.9722,-6.9594,-6.9737,-6.9737,-6.9808,-6.9804,-7.0214,-6.9849,-6.9849,-6.9848,-6.9847,0,-6.851,-6.8682,-6.8705,-6.8824,-6.9014,-6.901,-6.9198,-6.9237,-6.9309,-6.9434,-6.9391,-6.9509,-6.951,-6.9631,-6.9636,-6.9822,-6.9852,-6.9867,-6.9867,-6.9872,-6.9871,-6.9918,-6.99,-6.9859,-6.9856,-6.9854,-6.9852,0,-6.8807,-6.8829,-6.9036,-6.9118,-6.9142,-6.9279,-6.9349,-6.9462,-6.9485,-6.9644,-6.9681,-6.9718,-6.9857,-6.9873,-7.0034,-7.0038,-7.0263,-7.0241,-7.0234,-7.0232,-7.0374,-7.0361,-7.0831,-7.0892,-7.0485,-7.0489,-7.0492,0,-6.901,-6.9141,-6.9237,-6.9318,-6.9371,-6.9502,-6.9583,-6.9583,-6.9669,-6.9779,-6.9879,-7.0014,-7.0123,-7.0347,-7.0388,-7.0511,-7.0494,-7.065,-7.0512,-7.0514,-7.0498,-7.0491,-7.0505,-7.0677,-7.0681,-7.0685,-7.0688,0,-6.9368,-6.9373,-6.9491,-6.9615,-6.9712,-6.9809,-6.9899,-6.9968,-6.9979,-7.0077,-7.022,-7.0304,-7.047,-7.0605,-7.0726,-7.0773,-7.0734,-7.0731,-7.0771,-7.0778,-7.077,-7.0778,-7.0309,-7.072,-7.0717,-7.0715,-7.0713,-7.0712,-6.9625,-6.9739,-6.9826,-6.9959,-7.0027,-7.0113,-7.0224,-7.0262,-7.0381,-7.0517,-7.0509,-7.0667,-7.0751,-7.091,-7.0966,-7.1089,-7.1037,-7.1094,-7.1109,-7.1124,-7.1139,-7.0749,-7.1111,-7.111,-7.1109,-7.1108,-7.1107,0,-6.9983,-7.0036,-7.0159,-7.0287,-7.0393,-7.0346,-7.0443,-7.0534,-7.0674,-7.0756,-7.0864,-7.1028,-7.1159,-7.121,-7.1337,-7.1426,-7.1411,-7.1459,-7.1454,-7.1466,-7.1178,-7.1131,-7.147,-7.147,-7.147,-7.1469,-7.1469,-7.1469,-7.0182,-7.0373,-7.0388,-7.0612,-7.0663,-7.0818,-7.0878,-7.0957,-7.1023,-7.1209,-7.1318,-7.135,-7.142,-7.1552,-7.167,-7.1681,-7.1731,-7.1788,-7.1792,-7.1522,-7.1486,-7.1451,-7.1408,-7.1798,-7.1799,-7.207,-7.2072,-7.2074]}]]